Location: Brachstadt
(48.6975°N, 10.6755°E)
Time: 22:52:20
(UTC+00:00)

CSL-04 Debris - Pass Details

Date: 18 September 2020
Orbit: 827 x 847 km, 98.9° (Epoch: 30 October)

Event Time Altitude Azimuth Distance (km) Brightness Sun altitude
Rises 18:16:09 0° 170° (S) 3,359 7.1 -9.5°
Reaches altitude 10° 18:18:30 10° 172° (S) 2,428 6.4 -9.9°
Maximum altitude 18:23:52 71° 257° (WSW) 878 4.5 -10.7°
Drops below altitude 10° 18:29:16 10° 341° (NNW) 2,443 7.1 -11.6°
Sets 18:31:39 0° 344° (NNW) 3,382 7.8 -12.0°
